KA0QOK Weather Reports


Display with metric or nautical units.
time (UTC)temp
F
wind
direction
speed
MPH
gust
MPH
rain 1hr
in
rain 24hr
in
rain mn
in
humidity
%
barometer
mb
20240302154549 41 92 4.0 15.0 0.00 0.00 0.00 75 1012.8
20240302153042 40 132 6.0 13.0 0.00 0.00 0.00 77 1013.0
20240302151537 40 135 2.0 14.0 0.00 0.00 0.00 78 1013.1
20240302150038 39 151 4.0 12.0 0.00 0.00 0.00 79 1013.5
20240302144540 38 145 1.0 13.0 0.00 0.00 0.00 81 1013.6
20240302143036 37 136 1.0 9.0 0.00 0.00 0.00 82 1013.6
20240302141537 36 141 2.0 8.0 0.00 0.00 0.00 84 1013.6
20240302140031 35 150 0.0 5.0 0.00 0.00 0.00 85 1013.6
20240302134537 35 150 0.0 6.0 0.00 0.00 0.00 85 1013.7
20240302133039 34 150 0.0 1.0 0.00 0.00 0.00 86 1013.6
20240302131530 33 150 0.0 1.0 0.00 0.00 0.00 86 1013.7
20240302130025 33 150 0.0 0.0 0.00 0.00 0.00 85 1013.7
20240302124524 34 150 0.0 0.0 0.00 0.00 0.00 85 1013.8
20240302123020 34 150 0.0 0.0 0.00 0.00 0.00 85 1013.7
20240302121550 34 150 0.0 0.0 0.00 0.00 0.00 85 1013.4
20240302120048 34 150 0.0 0.0 0.00 0.00 0.00 84 1013.2
20240302114544 35 150 0.0 0.0 0.00 0.00 0.00 84 1013.3
20240302113051 35 150 0.0 0.0 0.00 0.00 0.00 83 1013.3
20240302111540 35 150 0.0 0.0 0.00 0.00 0.00 83 1013.1
20240302110045 36 150 0.0 0.0 0.00 0.00 0.00 82 1013.0
20240302104534 36 150 0.0 0.0 0.00 0.00 0.00 81 1012.9
20240302103037 37 150 0.0 1.0 0.00 0.00 0.00 80 1013.0
20240302101529 37 150 0.0 9.0 0.00 0.00 0.00 81 1012.8
20240302100034 37 153 0.0 7.0 0.00 0.00 0.00 80 1012.9
20240302094531 38 153 0.0 5.0 0.00 0.00 0.00 79 1012.8
20240302093022 38 153 0.0 7.0 0.00 0.00 0.00 79 1012.5
20240302091520 38 153 0.0 5.0 0.00 0.00 0.00 78 1012.1
20240302090034 38 153 0.0 3.0 0.00 0.00 0.00 78 1012.2
20240302084517 39 153 0.0 7.0 0.00 0.00 0.00 77 1012.3
20240302083024 39 153 0.0 2.0 0.00 0.00 0.00 76 1012.1
20240302081508 39 153 0.0 5.0 0.00 0.00 0.00 75 1012.3
20240302080006 40 153 0.0 2.0 0.00 0.00 0.00 75 1012.3
20240302074503 40 153 0.0 5.0 0.00 0.00 0.00 73 1012.4
20240302073031 41 153 0.0 6.0 0.00 0.00 0.00 73 1012.2
20240302071536 41 154 2.0 9.0 0.00 0.00 0.00 72 1012.0
20240302070055 42 157 1.0 6.0 0.00 0.00 0.00 71 1012.2
20240302064554 42 165 0.0 5.0 0.00 0.00 0.00 70 1012.2
20240302063049 43 165 2.0 6.0 0.00 0.00 0.00 69 1012.2
20240302061545 43 165 0.0 6.0 0.00 0.00 0.00 68 1012.4
20240302060043 44 157 2.0 11.0 0.00 0.00 0.00 67 1012.2
20240302054542 44 182 2.0 11.0 0.00 0.00 0.00 67 1012.1
20240302053039 44 167 2.0 12.0 0.00 0.00 0.00 66 1012.0
20240302051539 45 144 7.0 15.0 0.00 0.00 0.00 66 1011.8
20240302050039 45 160 5.0 16.0 0.00 0.00 0.00 65 1011.7
20240302044538 46 150 1.0 7.0 0.00 0.00 0.00 63 1011.8
20240302043038 46 161 5.0 14.0 0.00 0.00 0.00 62 1011.8
20240302041531 47 180 6.0 13.0 0.00 0.00 0.00 61 1011.8
20240302040030 48 158 6.0 13.0 0.00 0.00 0.00 60 1011.7
20240302034534 48 155 9.0 24.0 0.00 0.00 0.00 59 1011.8
20240302033041 48 175 7.0 23.0 0.00 0.00 0.00 59 1011.5
20240302031531 49 153 7.0 20.0 0.00 0.00 0.00 59 1011.3
20240302030025 49 157 7.0 12.0 0.00 0.00 0.00 58 1011.3
20240302024524 50 133 7.0 16.0 0.00 0.00 0.00 57 1011.2
20240302023022 50 147 4.0 15.0 0.00 0.00 0.00 56 1011.2
20240302021519 51 159 4.0 14.0 0.00 0.00 0.00 55 1011.1
20240302020016 51 151 4.0 10.0 0.00 0.00 0.00 55 1010.9
20240302014519 52 167 5.0 11.0 0.00 0.00 0.00 54 1010.8
20240302013016 52 144 5.0 18.0 0.00 0.00 0.00 53 1010.7
20240302011515 53 161 8.0 20.0 0.00 0.00 0.00 52 1010.5
20240302010017 53 173 7.0 12.0 0.00 0.00 0.00 52 1010.5
20240302004512 54 153 3.0 14.0 0.00 0.00 0.00 51 1010.7
20240302003132 54 159 10.0 18.0 0.00 0.00 0.00 51 1010.5
20240302001509 55 159 8.0 21.0 0.00 0.00 0.00 50 1010.5
20240302000008 55 201 9.0 24.0 0.00 0.00 0.00 49 1010.3
20240301234507 56 187 15.0 27.0 0.00 0.00 0.00 49 1010.2
20240301233004 56 164 10.0 31.0 0.00 0.00 0.00 49 1010.3
20240301231504 56 186 17.0 35.0 0.00 0.00 0.00 48 1010.3
20240301230005 57 159 13.0 30.0 0.00 0.00 0.00 48 1010.2
20240301224502 57 205 10.0 33.0 0.00 0.00 0.00 47 1010.2
20240301223057 57 191 14.0 29.0 0.00 0.00 0.00 47 1009.9
20240301221600 57 130 15.0 37.0 0.00 0.00 0.00 47 1009.7
20240301220055 57 177 19.0 43.0 0.00 0.00 0.00 47 1009.7
20240301214554 57 198 14.0 39.0 0.00 0.00 0.00 47 1009.6
20240301213052 57 131 22.0 45.0 0.00 0.00 0.00 47 1009.7
20240301211552 57 161 19.0 37.0 0.00 0.00 0.00 47 1009.8
20240301210052 57 188 17.0 40.0 0.00 0.00 0.00 47 1009.9
20240301204554 56 153 21.0 47.0 0.00 0.00 0.00 48 1009.6
20240301203043 56 161 23.0 45.0 0.00 0.00 0.00 47 1010.1
20240301201546 56 190 19.0 37.0 0.00 0.00 0.00 48 1010.2
20240301200035 54 170 25.0 41.0 0.00 0.00 0.00 49 1010.2
20240301194543 54 151 20.0 34.0 0.00 0.00 0.00 48 1010.2
20240301193033 54 134 20.0 43.0 0.00 0.00 0.00 48 1010.1
20240301191531 53 158 6.0 37.0 0.00 0.00 0.00 49 1010.5
20240301190025 52 182 17.0 35.0 0.00 0.00 0.00 50 1010.7
20240301184521 52 149 16.0 34.0 0.00 0.00 0.00 49 1010.8
20240301183031 50 138 9.0 33.0 0.00 0.00 0.00 51 1010.9
20240301183026 50 138 10.0 33.0 0.00 0.00 0.00 51 1010.9
20240301181514 50 169 24.0 34.0 0.00 0.00 0.00 51 1011.1
20240301180014 49 161 17.0 43.0 0.00 0.00 0.00 52 1011.3
20240301174508 48 128 20.0 36.0 0.00 0.00 0.00 52 1011.2
20240301173006 47 144 24.0 38.0 0.00 0.00 0.00 54 1011.2
20240301171506 47 151 13.0 37.0 0.00 0.00 0.00 55 1011.5
20240301170059 46 227 11.0 39.0 0.00 0.00 0.00 56 1011.8
20240301164558 45 163 20.0 46.0 0.00 0.00 0.00 55 1011.7
20240301163051 44 123 11.0 30.0 0.00 0.00 0.00 56 1011.5
20240301161550 43 173 18.0 32.0 0.00 0.00 0.00 56 1011.5
20240301160050 42 163 10.0 32.0 0.00 0.00 0.00 57 1011.5